Weather in Yaya

Russia / Kemerovo Oblast     56°12′20″N   86°27′04″E
temp.,
°C
wind,
m/s
gust,
m/s
humid.,
%
clouds,
%
prec.,
mm/h
press.,
hPa
HPBL,
m
21 april, wed
wed2101:00−8ssw3690100 0.0 1024111
04:00−8s3890100 0.0 1023201
07:00−7s3789100 0.0 1023252
10:00−4s4675100 0.0 1023706
13:00−2s4581100 0.3 1023838
16:00−1sse2275100 0.6 1024718
19:00−1e2479100 1.3 1026230
22:00−4ne228897 0.0 102928
22 april, thu
thu2201:00−8ne229282 0.0 103222
04:00−7ne359219 0.0 103473
07:00−6nne379325 0.0 1037165
10:00−1nne46766 0.0 1039628
13:000n457196 0.1 10401082
16:00+2nne567287 0.3 10411132
19:00+1nne587774 0.6 1042520
22:00−3nne38925 0.0 1045178
23 april, fri
fri2301:00−3nne38958 0.0 1045187
04:00−4nne379611 0.0 1045165
07:00−3ne38949 0.0 1046251
10:00+1ne57765 0.0 1046769
13:00+4ne685395 0.0 10441677
16:00+5ne675386 0.0 10421592
19:00+4nne596633 0.0 1042388
22:000nne412835 0.0 1043281
24 april, sat
sat2401:00−1ne411865 0.0 1042267
04:00−2nne4108995 0.0 1040242
07:00−1nne51184100 0.0 1039382
10:00+2nne6970100 0.0 1037657
13:00+5nne6758100 0.0 10341467
16:00+7nne6753100 0.0 10321615
19:00+5nne486796 0.1 1032310
22:00+1n3485100 0.0 103378
25 april, sun
sun2501:000n2390100 0.0 103260
04:000n2389100 0.0 103254
07:00+1nnw2488100 0.0 1032145
10:00+4nnw347394 0.0 1032714
13:00+6nnw3457100 0.1 10311421
16:00+8nw455095 0.0 10301673
19:00+8nw4559100 0.1 1030453
22:00+4nw3480100 0.0 103171